Regional Weather Roundup
Issued by NWS

Home | Current Version | Previous Version | Text Only | Print | Product List | Glossary On
Versions: 1 2 3 4 5 6 7 8 9 10 11 12 13 14 15 16 17 18 19 20 21 22 23 24 25 26 27 28 29 30 31 32 33 34 35 36 37 38 39 40 41 42 43 44 45 46 47 48 49 50
000
ASUS43 KDTX 142310
RWRMI
MICHIGAN HOURLY REGIONAL WEATHER ROUNDUP
NATIONAL WEATHER SERVICE DETROIT/PONTIAC MI
600 PM EST THU DEC 14 2017

NOTE: "FAIR" INDICATES FEW OR NO CLOUDS BELOW 12,000 FEET WITH NO
SIGNIFICANT WEATHER AND/OR OBSTRUCTION TO VISIBILITY.

MIZ047>049-052>055-059>063-066>070-074>076-081>083-150000-
SOUTHEAST LOWER MICHIGAN

CITY           SKY/WX    TMP DP  RH WIND       PRES   REMARKS
ADRIAN         CLOUDY    14   5  67 SW5       30.07R WCI   6
ALMA           MOCLDY    15   9  75 S7        30.02S WCI   5
ANN ARBOR      CLOUDY     7   2  80 SW5       30.05R WCI  -2
BAD AXE        CLEAR      5   1  83 CALM      30.00S
CARO           CLEAR      5   1  83 CALM      30.02R
DETROIT CITY   CLEAR     17   7  64 W3        30.06R
DETROIT        PTCLDY    23   7  50 W5        30.06R WCI  17
FLINT          CLOUDY    11   6  81 S3        30.03R
GROSSE ILE     CLEAR     18   7  62 W3        30.05R
HILLSDALE      CLOUDY    18   9  68 SW3       30.02R
HOWELL         CLEAR     15   9  76 SW3       30.02S

CITY           SKY/WX    TMP DP  RH WIND       PRES   REMARKS
JACKSON        CLOUDY    19   7  59 S6        30.02S WCI  11
LAMBERTVILLE   CLOUDY    10   5  81 CALM      30.07S
LANSING        CLOUDY    19  11  70 SW6       30.04R WCI  11
LAPEER         FAIR       9   5  82 CALM      30.02R
MASON          CLOUDY    16   6  63 CALM      30.03S
MONROE         CLOUDY    10   4  77 CALM      30.06R
MT. CLEMENS    PTCLDY    12   5  73 CALM      30.03R
PONTIAC        PTCLDY    14   8  77 SW3       30.01R
PORT HOPE        N/A     13   6  74 SW8       29.99S WCI   2
PORT HURON     CLOUDY     7   1  78 CALM      30.04R
TRI CITIES     MOCLDY    14   8  77 S6        30.02S WCI   5
MIDLAND        MOCLDY    16   9  73 S3        30.00S
TROY           CLEAR     19   9  65 CALM      30.06R
SAGINAW HB     CLOUDY    14   9  79 S5        30.02S WCI   6
$$
MIZ043>046-050>051-056>058-064>065-071>073-077>080-150000-
SOUTHWEST LOWER MICHIGAN

CITY           SKY/WX    TMP DP  RH WIND       PRES   REMARKS
BATTLE CREEK   CLOUDY    20  12  71 SW8       30.03R WCI  10
BENTON HARBOR  LGT SNOW  22  16  78 S6        30.05R WCI  14
BIG RAPIDS     PTCLDY    17  12  78 W3        29.98R
COLDWATER      CLOUDY    19  10  68 SW5       30.04S WCI  12
HOLLAND        CLOUDY    22  17  81 S8        30.04R WCI  12
GRAND RAPIDS   LGT SNOW  20  17  88 S6        30.02S FOG     WCI  12
IONIA          LGT SNOW  20  16  83 SW5       30.02S WCI  13
KALAMAZOO      CLOUDY    21  12  68 S7        30.04R HAZE    WCI  12
LUDINGTON      CLOUDY    22  11  63 NW6       30.01S WCI  14
MARSHALL       CLOUDY    19   9  65 SW5       30.03S WCI  13
MOUNT PLEASANT PTCLDY    21  12  69 CALM      29.99S
MUSKEGON       CLOUDY    21  16  81 SE5       30.03R WCI  15
SOUTH HAVEN    FLURRIES  23  17  79 S5        30.04S WCI  16
$$
MIZ016>042-150000-
NORTHERN LOWER MICHIGAN

CITY           SKY/WX    TMP DP  RH WIND       PRES   REMARKS
ALPENA         CLOUDY    19  11  70 CALM      29.96R
BEAVER ISLAND  MOCLDY    22  11  60 W9        29.95R WCI  12
BELLAIRE       CLOUDY    23  16  74 SW7       29.97S WCI  14
CADILLAC       FLURRIES  18  11  77 W5        29.94R WCI  11
CHARLEVOIX     CLOUDY    24  13  63 W12       29.97S WCI  13
FRANKFORT      CLOUDY    24  13  62 W7        29.99R WCI  16
GAYLORD        CLOUDY    18  12  77 W10       29.91R WCI   6
GRAYLING       FLURRIES  19  15  81 W6        29.94S WCI  11
HARBOR SPRINGS CLOUDY    23  10  57 W5        29.93S WCI  17
HOUGHTON LAKE  CLOUDY    19  11  70 W6        29.95R WCI  11
MANISTEE       CLOUDY    21  13  71 W6        30.00R WCI  13
OSCODA         CLOUDY    18  10  71 SW6       29.98R WCI  10
PELLSTON       CLOUDY    21  10  62 W6        29.94R WCI  13
ROGERS CITY    CLOUDY    19  12  72 SW3       29.96R
TRAVERSE CITY  FLURRIES  21  12  68 SW5       29.98R WCI  15
$$
MIZ007>008-015-150000-
EASTERN UPPER MICHIGAN

CITY           SKY/WX    TMP DP  RH WIND       PRES   REMARKS
KINROSS        CLOUDY    12   9  85 CALM      29.91R
MACKINAC ISLAN CLOUDY    23  12  63 W9G16     29.92S WCI  13
NEWBERRY       CLOUDY    18  14  84 W7        29.91S WCI   9
S. S. MARIE    LGT SNOW  12   7  80 SE3       29.91S
MUNISING         N/A     20  10  65 SW6       29.94S WCI  12
$$
MIZ004>006-011>014-085-150000-
CENTRAL UPPER MICHIGAN

CITY           SKY/WX    TMP DP  RH WIND       PRES   REMARKS
MANISTIQUE     PTCLDY    13   4  66 CALM      29.95S
ESCANABA       CLOUDY    18  10  71 CALM      29.97S
MENOMINEE      FLURRIES  21  14  74 VRB5      30.00R WCI  15
SAWYER-GWINN   CLOUDY    18  10  73 CALM      29.90F
$$
MIZ001>003-009>011-084-150000-
WESTERN UPPER MICHIGAN

CITY           SKY/WX    TMP DP  RH WIND       PRES   REMARKS
IRON MOUNTAIN  CLOUDY    17   9  70 W6        29.91F WCI   9
HOUGHTON       LGT SNOW  19  12  74 SW6       29.89R WCI  11
COPPER HARBOR    N/A     20   7  57 W5        29.92S WCI  13
IRONWOOD       FLURRIES  16  12  84 W6        29.93S WCI   7
$$

ABBREVIATIONS USED IN REMARKS
   TC - TEMPERATURE IN CELSIUS
  WCI - WIND CHILL INDEX
   HX - HEAT INDEX
  VSB - VISIBILITY





USA.gov is the U.S. government's official web portal to all federal, state and local government web resources and services.